Wind_Speed
49 38 38 47 41 44 16 4 26 60 62 64 66 76 66 74 72 69 69 64 60 53 47 44 40 49 55 55 53 50 44 38 35 32 28 27 24 23 24 24 23 22 20 17 17
41 37 36 37 32 28 24 18 39 59 60 46 71 70 74 69 66 67 68 62 60 55 50 41 39 34 51 60 58 50 45 40 37 32 29 29 29 27 26 28 27 25 23 21 20
41 36 40 27 22 15 14 18 39 47 52 43 43 76 84 77 73 69 67 63 60 53 46 42 39 34 31 44 55 51 46 41 38 32 29 29 29 28 29 31 31 28 24 23 22
43 36 33 21 20 16 5 26 49 48 35 25 40 57 83 66 66 67 63 62 54 49 48 41 38 32 31 39 52 51 43 39 36 32 33 32 30 30 30 30 32 29 27 25 24
45 39 30 18 20 13 16 45 51 18 14 27 39 37 76 71 67 64 67 62 53 54 49 43 41 38 33 45 54 51 44 40 37 36 32 30 29 28 27 29 29 29 27 25 22
43 42 30 23 21 13 18 51 49 13 18 13 30 21 42 74 66 61 62 61 58 50 46 43 42 38 34 50 49 47 41 40 38 37 33 30 27 28 28 28 28 28 26 24 22
39 42 36 36 26 31 32 30 19 15 20 20 33 27 27 57 70 59 60 63 62 53 45 42 37 38 28 42 55 46 35 40 40 37 37 30 28 26 27 29 29 27 27 26 25
34 34 26 28 26 28 22 13 8 10 20 16 17 37 28 38 61 62 62 62 54 50 42 39 36 29 31 31 43 42 35 36 41 38 35 31 31 26 24 25 26 27 28 27 26
29 34 22 14 15 20 9 5 10 12 15 16 21 23 28 34 44 56 61 55 52 49 41 38 36 33 29 30 37 46 41 38 39 41 36 35 34 29 24 24 24 25 26 27 27
21 29 24 11 5 13 9 7 8 11 14 21 25 26 20 35 34 42 47 54 55 44 38 38 35 32 38 33 38 43 42 44 37 39 35 36 34 31 27 26 24 25 26 27 28
18 27 30 33 2 5 10 8 15 21 29 28 28 16 25 33 34 39 44 52 56 48 40 36 43 43 33 35 39 37 39 37 39 38 38 35 36 33 31 29 28 28 28 28 31
13 20 24 30 27 20 11 20 21 14 19 28 13 24 28 32 34 38 42 50 50 41 45 40 41 44 34 38 35 40 39 41 41 42 43 36 35 35 36 35 34 33 32 32 31
14 14 20 21 24 20 18 10 14 14 14 13 18 22 39 37 34 39 43 49 52 46 39 35 33 42 37 39 44 43 39 36 35 35 38 38 39 38 37 38 37 39 38 36 36
17 9 14 15 20 12 7 17 19 19 19 15 21 29 24 26 35 40 45 44 51 45 37 37 37 37 42 41 39 40 38 34 34 35 34 36 38 41 41 40 41 40 44 42 43
21 13 8 10 13 10 12 16 19 16 11 12 25 23 23 26 34 42 48 39 37 42 41 39 38 37 39 41 41 37 38 36 37 35 35 36 36 39 39 39 40 41 40 43 44
23 19 14 6 9 7 8 10 9 10 10 8 11 26 26 28 34 28 40 41 37 42 44 43 42 41 38 39 39 37 37 39 38 36 35 37 38 37 37 36 37 35 33 33 37
21 22 18 11 5 3 2 5 2 5 7 11 7 8 14 21 22 28 24 30 37 39 38 40 45 45 41 39 35 34 37 36 36 37 36 37 38 35 35 34 33 34 34 36 39
18 19 20 14 6 9 8 6 3 2 4 7 8 9 10 10 12 20 23 28 33 39 36 40 38 36 37 38 39 36 37 37 36 33 28 31 34 32 33 34 33 34 33 36 39
13 16 17 18 10 6 14 11 10 9 6 5 5 5 7 9 10 10 12 15 21 25 29 26 27 31 34 36 37 34 32 30 28 24 24 28 31 31 28 28 31 34 35 38 43
16 15 16 15 17 11 8 16 14 14 13 11 8 7 5 8 10 11 12 13 16 14 14 18 22 23 25 28 31 31 27 23 22 22 24 26 27 28 26 28 31 34 38 43 48
22 16 18 17 14 15 11 7 15 16 20 20 21 19 18 16 14 14 13 14 14 14 13 14 15 17 20 25 27 26 27 27 28 28 29 29 33 34 38 40 42 44 47 52 54
30 26 22 20 17 15 14 13 10 11 18 23 24 23 24 24 22 22 22 21 20 20 20 20 20 20 20 23 23 23 24 25 27 30 36 39 40 40 42 47 48 50 51 53 53
33 31 26 23 20 20 18 17 14 12 12 12 15 19 26 28 27 28 28 25 22 22 22 22 22 24 25 26 25 25 24 26 28 29 30 35 35 37 38 40 39 40 41 41 42
41 37 31 27 24 25 23 21 19 15 13 12 10 10 13 16 20 22 25 27 26 26 25 25 25 26 28 29 29 28 28 28 29 30 29 27 30 28 28 29 31 32 32 33 36
47 39 36 31 29 31 32 24 23 20 18 16 13 12 14 15 17 18 20 22 23 24 25 26 26 27 28 29 28 26 26 26 24 23 21 22 23 27 24 27 31 34 36 40 44
46 43 42 38 34 35 37 28 27 26 24 23 19 20 17 15 15 15 16 15 16 16 18 19 19 21 23 23 21 21 21 19 18 19 19 21 21 25 29 32 35 38 42 43 45
47 46 44 41 40 42 38 33 35 36 32 29 29 27 21 20 19 17 17 17 16 18 18 18 19 21 21 21 21 20 18 18 19 19 21 20 24 28 32 34 35 40 42 45 48
Wind_Direction
338 337 336 344 344 353 325 217 178 175 170 184 188 185 187 195 206 208 205 202 204 200 200 209 214 191 202 207 214 213 214 211 212 216 218 221 225 223 219 224 228 227 231 237 244
339 336 342 344 352 24 57 100 155 168 156 160 191 189 193 195 198 202 203 201 200 198 196 204 209 207 204 209 215 215 214 212 213 218 223 227 231 233 227 227 232 232 232 236 242
356 338 334 348 8 9 41 128 154 158 160 177 181 185 191 196 202 204 203 200 195 196 200 195 202 204 215 209 208 216 214 213 214 213 223 232 231 236 238 233 236 240 238 240 248
1 353 348 6 10 33 81 148 148 152 162 151 188 196 194 185 194 200 198 199 193 196 193 193 193 204 204 208 211 213 217 216 218 221 226 234 239 237 240 242 236 240 242 246 252
6 8 359 18 26 50 133 148 154 95 121 162 170 168 200 188 199 197 195 199 193 190 191 188 186 200 203 203 209 210 214 217 216 222 225 231 234 233 242 243 243 242 241 243 251
10 17 20 33 39 110 146 136 148 101 125 182 177 161 195 194 188 193 195 194 188 193 195 191 191 199 202 193 202 207 208 204 212 217 224 230 232 237 243 243 244 245 245 247 253
15 22 39 45 73 133 133 133 83 92 162 157 189 184 190 194 198 189 197 192 195 201 197 196 198 203 206 199 203 212 207 212 229 226 227 229 234 240 242 242 246 248 251 251 249
23 26 38 51 113 132 84 72 62 92 133 134 155 190 183 185 196 198 193 192 195 197 194 193 192 199 208 203 207 216 216 217 222 226 221 226 233 238 239 243 244 246 247 245 246
30 36 53 89 90 61 58 73 124 96 134 128 153 163 196 189 193 201 194 185 189 192 184 195 190 195 199 206 209 216 222 222 224 224 220 225 234 241 233 236 242 246 244 242 240
23 25 47 87 42 39 47 69 149 123 123 122 136 144 172 183 191 199 195 193 192 183 187 201 200 193 201 201 208 210 220 226 228 220 218 227 237 235 228 233 238 241 239 239 242
3 9 18 35 276 321 106 89 127 129 125 130 139 161 181 179 183 190 195 193 192 190 190 205 197 209 209 211 213 217 221 223 220 225 223 230 237 230 229 230 233 237 239 242 249
349 359 16 23 53 88 109 118 83 118 144 147 155 169 170 168 181 190 194 185 190 199 197 202 203 205 209 211 211 214 223 224 219 221 226 231 235 235 236 234 234 235 240 244 251
1 5 21 33 51 106 118 50 85 121 149 142 149 162 158 164 183 181 187 189 188 194 203 194 199 194 202 211 214 214 214 222 228 226 230 234 240 239 240 240 244 244 241 244 248
11 4 24 31 43 84 64 68 100 128 138 153 160 162 178 175 179 183 185 190 197 204 203 204 205 200 201 205 204 210 218 229 228 229 232 234 238 241 246 247 246 250 246 245 247
5 356 324 357 9 40 62 76 92 115 155 141 162 173 184 178 172 178 188 199 202 201 203 203 201 209 205 208 211 215 220 223 224 226 230 234 238 240 241 240 245 250 253 250 256
346 359 3 295 324 5 44 71 81 95 85 138 152 169 172 185 193 191 192 203 207 207 207 212 209 208 210 211 215 220 221 224 231 234 233 236 237 239 243 245 247 247 253 255 257
337 343 357 4 289 310 318 38 107 103 129 107 127 146 188 191 188 200 216 219 213 208 210 217 222 220 215 215 218 223 225 228 232 235 235 238 238 239 240 246 250 254 258 262 265
327 331 337 356 327 270 270 281 296 185 146 155 146 133 148 175 193 214 215 215 219 224 231 233 222 222 227 226 224 227 227 227 229 230 241 245 244 249 253 255 258 262 265 264 264
300 316 320 323 340 286 248 246 249 244 237 242 197 178 178 175 180 195 202 208 206 209 218 223 225 230 232 226 226 225 219 224 228 235 246 253 256 259 263 264 263 264 266 268 267
276 291 301 305 311 325 261 231 241 255 247 246 240 250 246 223 230 223 217 219 223 226 228 231 231 231 230 230 227 224 224 230 232 243 249 254 259 260 268 268 269 270 268 268 268
267 267 279 286 290 306 311 250 235 237 248 243 250 256 263 252 251 242 227 237 241 245 252 251 249 246 244 245 247 251 255 256 256 254 255 262 264 267 265 266 268 269 270 271 275
259 264 260 268 271 275 286 282 269 251 244 243 245 249 247 246 242 245 242 243 242 246 250 253 261 265 270 269 261 259 260 263 265 267 267 267 270 275 278 277 278 281 285 286 288
256 254 253 255 261 262 262 268 269 268 260 245 240 243 242 243 246 249 248 252 254 254 255 256 258 257 256 260 265 269 268 267 268 272 273 275 279 281 284 287 289 291 292 293 296
256 252 253 252 251 256 254 251 257 261 263 258 241 241 237 238 243 243 244 243 244 248 253 256 256 257 258 258 259 262 264 267 270 274 278 281 286 289 296 297 299 301 304 305 306
251 253 253 249 249 249 253 248 253 255 251 245 246 238 237 231 232 236 238 240 243 245 247 251 254 257 259 262 265 266 267 268 270 273 281 288 290 298 303 307 309 309 307 305 302
253 257 254 247 244 245 249 246 244 248 245 243 237 235 238 243 245 238 239 244 246 246 246 247 251 256 259 261 261 261 262 266 271 274 280 286 293 300 302 304 306 305 304 304 305
243 248 248 248 246 246 245 245 240 239 239 238 238 240 240 237 236 242 247 249 250 251 253 252 254 256 258 260 262 264 266 267 271 279 285 291 292 295 298 300 303 304 306 307 306
Height
5624 5613 5602 5588 5572 5554 5537 5534 5539 5560 5585 5608 5625 5645 5658 5670 5678 5689 5701 5713 5726 5737 5747 5757 5765 5771 5779 5785 5792 5799 5807 5812 5817 5821 5826 5829 5832 5835 5838 5839 5841 5842 5845 5848 5850
5622 5612 5600 5587 5575 5565 5554 5547 5550 5566 5587 5609 5622 5635 5651 5661 5672 5686 5699 5710 5723 5735 5747 5754 5761 5769 5775 5780 5787 5795 5804 5808 5815 5819 5822 5825 5829 5832 5834 5836 5838 5839 5842 5846 5847
5621 5610 5598 5588 5579 5574 5571 5568 5567 5585 5597 5609 5617 5631 5647 5656 5669 5683 5696 5708 5720 5732 5743 5751 5758 5765 5772 5778 5784 5792 5801 5806 5810 5815 5818 5822 5825 5828 5830 5832 5834 5837 5840 5842 5844
5620 5609 5597 5589 5582 5577 5575 5578 5578 5597 5604 5611 5621 5631 5642 5652 5669 5679 5695 5706 5719 5729 5739 5748 5756 5763 5768 5774 5781 5790 5797 5804 5808 5811 5815 5818 5822 5824 5826 5830 5830 5833 5837 5838 5840
5623 5610 5598 5591 5586 5584 5581 5585 5588 5599 5608 5614 5621 5630 5637 5653 5668 5680 5693 5707 5719 5729 5738 5745 5753 5760 5765 5771 5778 5787 5794 5800 5805 5808 5811 5814 5818 5821 5823 5825 5827 5829 5832 5835 5837
5629 5616 5605 5598 5593 5591 5591 5597 5602 5608 5610 5616 5622 5628 5639 5654 5667 5680 5692 5706 5717 5726 5734 5742 5749 5757 5762 5769 5777 5784 5789 5795 5801 5805 5808 5811 5814 5816 5821 5822 5824 5826 5828 5831 5832
5635 5625 5615 5609 5604 5606 5610 5610 5610 5615 5617 5621 5625 5632 5641 5654 5663 5678 5690 5705 5714 5725 5733 5740 5747 5754 5761 5766 5774 5780 5785 5791 5796 5800 5805 5809 5811 5814 5816 5818 5821 5823 5825 5826 5827
5642 5634 5626 5623 5620 5619 5620 5619 5619 5619 5622 5623 5629 5636 5646 5655 5664 5677 5689 5702 5713 5724 5731 5739 5746 5751 5758 5764 5770 5775 5782 5787 5792 5798 5802 5806 5808 5812 5812 5814 5816 5819 5821 5822 5822
5649 5643 5638 5635 5630 5627 5626 5625 5624 5623 5625 5628 5634 5640 5649 5658 5666 5677 5688 5701 5713 5723 5730 5737 5743 5749 5756 5761 5767 5771 5777 5783 5788 5793 5798 5802 5804 5807 5809 5810 5811 5813 5815 5816 5816
5654 5651 5647 5644 5638 5636 5633 5630 5628 5630 5632 5635 5640 5649 5656 5660 5670 5678 5688 5701 5713 5722 5728 5733 5740 5746 5752 5758 5763 5768 5773 5778 5784 5789 5792 5798 5801 5802 5803 5805 5807 5809 5809 5811 5811
5658 5653 5651 5645 5641 5638 5636 5636 5637 5639 5640 5643 5648 5653 5655 5664 5672 5681 5691 5701 5711 5720 5727 5732 5737 5744 5751 5756 5761 5768 5771 5775 5782 5785 5788 5792 5795 5795 5798 5801 5801 5803 5805 5807 5807
5664 5660 5655 5651 5648 5644 5642 5643 5644 5646 5647 5649 5652 5657 5663 5670 5675 5683 5693 5702 5711 5719 5725 5732 5736 5742 5747 5753 5758 5764 5767 5771 5776 5780 5783 5787 5786 5789 5793 5794 5796 5798 5800 5802 5803
5667 5665 5661 5658 5657 5654 5653 5650 5650 5651 5654 5655 5658 5662 5667 5675 5678 5687 5696 5703 5711 5718 5722 5728 5734 5739 5744 5749 5754 5759 5762 5767 5771 5773 5775 5776 5779 5783 5786 5789 5791 5793 5794 5795 5796
5670 5666 5666 5664 5665 5662 5660 5658 5656 5658 5661 5664 5665 5669 5673 5678 5682 5689 5697 5704 5709 5714 5721 5726 5729 5734 5738 5743 5748 5752 5758 5762 5765 5768 5770 5770 5773 5776 5779 5782 5785 5787 5788 5789 5790
5673 5669 5668 5667 5666 5667 5666 5664 5664 5666 5667 5670 5671 5675 5677 5681 5686 5689 5697 5702 5707 5713 5718 5722 5724 5728 5733 5738 5743 5747 5752 5756 5759 5762 5763 5764 5767 5770 5773 5776 5778 5780 5781 5782 5783
5672 5672 5669 5669 5668 5669 5670 5670 5671 5673 5671 5672 5673 5677 5680 5683 5688 5692 5697 5702 5707 5711 5714 5718 5723 5727 5731 5734 5738 5742 5746 5749 5752 5754 5756 5757 5761 5763 5766 5769 5770 5773 5775 5776 5777
5675 5673 5671 5670 5669 5669 5672 5673 5675 5674 5676 5677 5677 5679 5681 5684 5688 5693 5696 5700 5704 5708 5712 5718 5721 5724 5728 5731 5734 5738 5741 5744 5748 5750 5752 5752 5755 5758 5760 5762 5765 5767 5768 5770 5772
5676 5674 5673 5671 5671 5670 5670 5674 5675 5677 5679 5679 5680 5682 5683 5686 5689 5692 5695 5698 5701 5705 5709 5713 5718 5720 5723 5726 5729 5732 5736 5739 5741 5744 5745 5745 5748 5753 5755 5756 5759 5762 5763 5764 5764
5676 5675 5673 5671 5671 5671 5673 5673 5675 5677 5679 5681 5683 5684 5686 5688 5692 5694 5696 5699 5701 5703 5708 5710 5713 5715 5719 5721 5725 5727 5730 5733 5735 5737 5738 5741 5744 5745 5750 5753 5754 5754 5755 5756 5756
5674 5673 5672 5672 5669 5671 5671 5671 5673 5675 5678 5680 5683 5685 5687 5689 5692 5694 5696 5698 5700 5702 5705 5709 5713 5714 5716 5719 5721 5722 5724 5728 5730 5733 5735 5737 5739 5741 5744 5746 5747 5747 5747 5747 5745
5671 5672 5671 5670 5670 5669 5669 5670 5670 5673 5674 5678 5680 5683 5685 5688 5690 5693 5696 5697 5698 5700 5703 5705 5708 5711 5714 5716 5719 5721 5722 5725 5726 5728 5728 5730 5732 5734 5735 5737 5738 5738 5738 5738 5738
5667 5667 5667 5668 5669 5668 5668 5668 5669 5669 5671 5674 5676 5678 5681 5684 5687 5690 5692 5694 5697 5699 5702 5703 5704 5707 5708 5710 5713 5715 5716 5719 5720 5724 5724 5724 5727 5728 5728 5730 5732 5732 5732 5730 5728
5660 5660 5662 5663 5666 5665 5665 5666 5666 5668 5669 5670 5671 5673 5674 5678 5682 5684 5687 5689 5692 5694 5696 5698 5700 5702 5704 5707 5708 5709 5711 5714 5716 5717 5719 5719 5721 5720 5722 5723 5724 5722 5720 5719 5717
5651 5653 5657 5657 5661 5661 5662 5662 5663 5664 5666 5667 5668 5668 5669 5672 5675 5678 5681 5684 5687 5689 5690 5692 5694 5696 5697 5700 5702 5704 5705 5708 5710 5712 5713 5713 5712 5714 5715 5715 5716 5716 5715 5713 5710
5643 5645 5650 5651 5654 5655 5656 5660 5660 5661 5662 5663 5665 5665 5666 5667 5669 5672 5675 5677 5679 5682 5684 5687 5688 5688 5690 5693 5695 5697 5699 5701 5704 5706 5707 5708 5706 5709 5709 5711 5710 5709 5706 5704 5701
5630 5636 5639 5643 5644 5646 5647 5655 5655 5655 5657 5659 5660 5660 5661 5663 5665 5666 5667 5670 5673 5676 5678 5679 5680 5682 5684 5688 5691 5693 5694 5696 5699 5701 5703 5703 5702 5704 5703 5702 5703 5700 5698 5694 5690
5620 5623 5627 5630 5634 5637 5642 5647 5647 5647 5651 5654 5653 5654 5658 5659 5660 5661 5663 5665 5668 5670 5672 5674 5675 5678 5681 5684 5687 5689 5690 5692 5695 5697 5698 5698 5697 5697 5696 5694 5691 5689 5687 5682 5679